EW2804 Weather Reports


time (UTC)temp
F
wind
direction
speed
knots
gust
knots
rain 1hr
in
rain 24hr
in
rain mn
in
humidity
%
barometer
mb
20260902194421 98 355 1.7 6.1 0.00 0.00 0.00 40 1011.0
20260902192323 97 57 1.7 5.2 0.00 0.00 0.00 41 1011.4
20260902191308 98 32 0.9 7.0 0.00 0.00 0.00 41 1011.6
20260902190244 97 84 1.7 8.7 0.00 0.00 0.00 41 1011.7
20260902185227 97 22 0.9 5.2 0.00 0.00 0.00 42 1011.8
20260902183102 96 32 0.9 6.1 0.00 0.00 0.00 43 1012.1
20260902182106 96 144 1.7 5.2 0.00 0.00 0.00 44 1012.3
20260902181058 96 65 0.9 5.2 0.00 0.00 0.00 45 1012.6
20260902180052 96 136 1.7 4.3 0.00 0.00 0.00 44 1012.7
20260902175112 96 103 0.9 4.3 0.00 0.00 0.00 45 1012.9
20260902174113 95 36 0.9 6.1 0.00 0.00 0.00 46 1013.1
20260902173103 94 120 1.7 6.1 0.00 0.00 0.00 45 1013.3
20260902172124 94 130 1.7 6.1 0.00 0.00 0.00 45 1013.5
20260902170006 93 131 1.7 7.0 0.00 0.00 0.00 48 1013.7
20260902165024 93 182 1.7 7.0 0.00 0.00 0.00 49 1013.8
20260902162819 92 148 1.7 4.3 0.00 0.00 0.00 49 1013.9
20260902160610 91 67 0.9 5.2 0.00 0.00 0.00 51 1014.1
20260902154521 91 54 0.0 5.2 0.00 0.00 0.00 51 1014.1
20260902153536 90 121 0.9 5.2 0.00 0.00 0.00 52 1014.1
20260902151433 88 216 0.9 4.3 0.00 0.00 0.00 56 1014.0
20260902145251 88 135 0.9 4.3 0.00 0.00 0.00 58 1013.9
20260902144237 87 246 0.0 2.6 0.00 0.00 0.00 59 1014.0
20260902143223 86 221 0.0 2.6 0.00 0.00 0.00 60 1014.0
20260902142212 86 177 0.9 5.2 0.00 0.00 0.00 61 1014.1
20260902141206 86 109 0.9 5.2 0.00 0.00 0.00 62 1014.0
20260902140144 85 246 0.9 2.6 0.00 0.00 0.00 63 1014.0
20260902135149 84 187 0.9 2.6 0.00 0.00 0.00 65 1014.0
20260902134129 82 130 0.0 1.7 0.00 0.00 0.00 69 1013.9
20260902133140 80 51 0.0 0.0 0.00 0.00 0.00 73 1013.8
20260902132141 79 51 0.0 0.0 0.00 0.00 0.00 77 1013.8
20260902131113 77 51 0.0 0.0 0.00 0.00 0.00 80 1013.8
20260902130113 76 51 0.0 0.0 0.00 0.00 0.00 80 1013.6
20260902125112 76 51 0.0 0.0 0.00 0.00 0.00 80 1013.6
20260902124127 76 162 0.0 0.0 0.00 0.00 0.00 79 1013.5
20260902122008 76 140 0.0 0.0 0.00 0.00 0.00 78 1013.2
20260902121017 76 140 0.0 0.0 0.00 0.00 0.00 79 1013.2
20260902114905 76 140 0.0 0.0 0.00 0.00 0.00 78 1013.1
20260902113838 76 140 0.0 0.0 0.00 0.00 0.00 78 1013.2
20260902112818 76 140 0.0 0.0 0.00 0.00 0.00 77 1013.1
20260902111755 76 140 0.0 0.0 0.00 0.00 0.00 76 1013.2
20260902110811 76 140 0.0 0.0 0.00 0.00 0.00 75 1013.2
20260902105819 77 140 0.0 0.0 0.00 0.00 0.00 75 1013.2
20260902104757 77 140 0.0 0.0 0.00 0.00 0.00 74 1013.1
20260902103751 77 140 0.0 0.0 0.00 0.00 0.00 73 1013.0
20260902102805 78 140 0.0 0.0 0.00 0.00 0.00 73 1012.9
20260902101801 78 140 0.0 0.0 0.00 0.00 0.00 71 1013.1
20260902100812 79 140 0.0 0.0 0.00 0.00 0.00 70 1013.1
20260902095740 79 140 0.0 0.0 0.00 0.00 0.00 70 1012.9
20260902094729 80 140 0.0 0.0 0.00 0.00 0.00 69 1013.0
20260902093711 81 140 0.0 0.0 0.00 0.00 0.00 67 1013.0
20260902091536 82 140 0.0 0.0 0.00 0.00 0.00 64 1013.0
20260902090510 83 140 0.0 0.0 0.00 0.00 0.00 63 1013.0
20260902085512 83 140 0.0 1.7 0.00 0.00 0.00 62 1013.0
20260902083354 84 166 0.0 0.0 0.00 0.00 0.00 61 1013.1
20260902082321 84 166 0.0 0.0 0.00 0.00 0.00 61 1013.2
20260902081254 84 166 0.0 0.0 0.00 0.00 0.00 60 1013.1
20260902080245 85 166 0.0 2.6 0.00 0.00 0.00 60 1013.0
20260902075208 85 107 0.0 2.6 0.00 0.00 0.00 59 1013.0
20260902074229 85 130 0.0 6.1 0.00 0.00 0.00 59 1013.1
20260902073244 86 133 0.0 4.3 0.00 0.00 0.00 59 1013.1
20260902072253 86 123 0.0 2.6 0.00 0.00 0.00 58 1013.1
20260902071252 86 162 0.0 2.6 0.00 0.00 0.00 58 1013.1
20260902070250 86 137 0.0 6.1 0.00 0.00 0.00 58 1013.2
20260902065306 86 177 0.0 4.3 0.00 0.00 0.00 58 1013.2
20260902064243 86 246 0.9 3.5 0.00 0.00 0.00 57 1013.1
20260902062045 87 144 0.0 0.9 0.00 0.00 0.00 57 1012.9
20260902061056 87 142 0.9 2.6 0.00 0.00 0.00 56 1012.8
20260902060033 87 148 0.0 3.5 0.00 0.00 0.00 55 1012.7
20260902054956 88 173 0.9 5.2 0.00 0.00 0.00 54 1012.6
20260902053927 88 151 0.9 5.2 0.00 0.00 0.00 53 1012.5
20260902052858 89 157 0.9 7.0 0.00 0.00 0.00 52 1012.5
20260902051838 89 182 1.7 7.0 0.00 0.00 0.00 52 1012.4
20260902045625 85 171 0.0 2.6 0.00 0.00 0.00 59 1012.2
20260902044610 85 171 0.0 0.0 0.00 0.00 0.00 59 1012.1
20260902043558 85 171 0.0 0.0 0.00 0.00 0.00 59 1012.2
20260902042554 85 171 0.0 0.0 0.00 0.00 0.00 58 1012.2
20260902041520 86 171 0.0 0.0 0.00 0.00 0.00 59 1012.2
20260902035358 86 171 0.0 0.0 0.00 0.00 0.00 57 1012.1
20260902034341 87 171 0.0 0.0 0.00 0.00 0.00 57 1012.2
20260902033353 87 171 0.0 0.0 0.00 0.00 0.00 57 1012.2
20260902032355 87 171 0.0 0.0 0.00 0.00 0.00 55 1012.1
20260902031413 88 171 0.0 0.0 0.00 0.00 0.00 54 1012.0
20260902030359 89 171 0.0 0.0 0.00 0.00 0.00 51 1011.8
20260902025403 90 171 0.0 0.0 0.00 0.00 0.00 49 1011.7
20260902024411 90 171 0.0 0.0 0.00 0.00 0.00 48 1011.6
20260902023414 91 171 0.0 0.0 0.00 0.00 0.00 47 1011.4
20260902022431 91 171 0.0 0.0 0.00 0.00 0.00 46 1011.3
20260902021442 91 142 0.0 0.9 0.00 0.00 0.00 46 1011.1
20260902020439 92 142 0.0 0.0 0.00 0.00 0.00 45 1011.0
20260902015403 92 142 0.0 0.0 0.00 0.00 0.00 44 1010.9
20260902014408 93 142 0.0 1.7 0.00 0.00 0.00 43 1010.7
20260902011147 94 142 0.0 0.0 0.00 0.00 0.00 41 1010.5
20260902010157 95 142 0.9 4.3 0.00 0.00 0.00 40 1010.5
20260902005217 95 125 0.9 3.5 0.00 0.00 0.00 40 1010.4
20260902004231 96 185 0.9 3.5 0.00 0.00 0.00 39 1010.5
20260902003233 97 163 0.9 3.5 0.00 0.00 0.00 39 1010.5
20260902002224 97 248 0.9 3.5 0.00 0.00 0.00 37 1010.6
20260902001210 98 206 0.0 3.5 0.00 0.00 0.00 35 1010.6
20260901235006 99 117 0.9 4.3 0.00 0.00 0.00 35 1010.7
20260901234006 99 99 0.9 6.1 0.00 0.00 0.00 34 1010.8
20260901232938 99 42 1.7 6.1 0.00 0.00 0.00 35 1010.8
20260901231936 100 157 1.7 6.1 0.00 0.00 0.00 35 1010.9
20260901230948 100 103 0.9 5.2 0.00 0.00 0.00 34 1010.9
20260901225923 100 125 0.9 7.8 0.00 0.00 0.00 34 1010.9
20260901224913 100 113 1.7 7.8 0.00 0.00 0.00 34 1011.0
20260901222817 101 128 0.9 7.0 0.00 0.00 0.00 33 1011.0
20260901221745 101 36 0.9 5.2 0.00 0.00 0.00 33 1011.0
20260901220714 100 150 0.9 5.2 0.00 0.00 0.00 33 1011.0
20260901215736 100 212 1.7 7.0 0.00 0.00 0.00 33 1011.1
20260901214704 99 74 1.7 7.8 0.00 0.00 0.00 35 1011.3
20260901213634 100 56 0.9 7.8 0.00 0.00 0.00 35 1011.3
20260901212639 99 130 0.0 4.3 0.00 0.00 0.00 35 1011.4
20260901211614 98 194 1.7 3.5 0.00 0.00 0.00 37 1011.5
20260901210540 99 56 0.9 5.2 0.00 0.00 0.00 36 1011.7
20260901205509 99 9 1.7 6.1 0.00 0.00 0.00 36 1011.7
20260901204446 100 152 1.7 7.0 0.00 0.00 0.00 35 1011.8
20260901203441 100 205 1.7 7.0 0.00 0.00 0.00 36 1011.9
20260901201356 99 65 1.7 6.1 0.00 0.00 0.00 38 1012.1
20260901200336 99 43 1.7 6.1 0.00 0.00 0.00 38 1012.2
20260901195318 99 82 1.7 7.0 0.00 0.00 0.00 38 1012.4